Year,Month,Day,Hour,Minute,Value (Times are PST for temperature in C)
2014,08,25,00,00,18.30
2014,08,25,00,01,18.30
2014,08,25,00,02,18.20
2014,08,25,00,03,18.20
2014,08,25,00,04,18.20
2014,08,25,00,05,18.20
2014,08,25,00,06,18.20
2014,08,25,00,07,18.10
2014,08,25,00,08,18.10
2014,08,25,00,09,18.00
2014,08,25,00,10,18.00
2014,08,25,00,11,18.00
2014,08,25,00,12,17.90
2014,08,25,00,13,17.90
2014,08,25,00,14,17.90
2014,08,25,00,15,17.90
2014,08,25,00,16,17.80
2014,08,25,00,17,17.80
2014,08,25,00,18,17.80
2014,08,25,00,19,17.80
2014,08,25,00,20,17.70
2014,08,25,00,21,17.70
2014,08,25,00,22,17.70
2014,08,25,00,23,17.70
2014,08,25,00,24,17.60
2014,08,25,00,25,17.60
2014,08,25,00,26,17.60
2014,08,25,00,27,17.60
2014,08,25,00,28,17.60
2014,08,25,00,29,17.50
2014,08,25,00,30,17.50
2014,08,25,00,31,17.50
2014,08,25,00,32,17.50
2014,08,25,00,33,17.40
2014,08,25,00,34,17.40
2014,08,25,00,35,17.40
2014,08,25,00,36,17.40
2014,08,25,00,37,17.40
2014,08,25,00,38,17.40
2014,08,25,00,39,17.40
2014,08,25,00,40,17.40
2014,08,25,00,41,17.40
2014,08,25,00,42,17.40
2014,08,25,00,43,17.40
2014,08,25,00,44,17.30
2014,08,25,00,45,17.30
2014,08,25,00,46,17.30
2014,08,25,00,47,17.30
2014,08,25,00,48,17.30
2014,08,25,00,49,17.30
2014,08,25,00,50,17.30
2014,08,25,00,51,17.30
2014,08,25,00,52,17.30
2014,08,25,00,53,17.30
2014,08,25,00,54,17.30
2014,08,25,00,55,17.30
2014,08,25,00,56,17.30
2014,08,25,00,57,17.30
2014,08,25,00,58,17.30
2014,08,25,00,59,17.30
2014,08,25,01,00,17.20
2014,08,25,01,01,17.20
2014,08,25,01,02,17.20
2014,08,25,01,03,17.20
2014,08,25,01,04,17.20
2014,08,25,01,05,17.20
2014,08,25,01,06,17.20
2014,08,25,01,07,17.20
2014,08,25,01,08,17.20
2014,08,25,01,09,17.10
2014,08,25,01,10,17.10
2014,08,25,01,11,17.10
2014,08,25,01,12,17.10
2014,08,25,01,13,17.00
2014,08,25,01,14,17.00
2014,08,25,01,15,17.00
2014,08,25,01,16,17.00
2014,08,25,01,17,16.90
2014,08,25,01,18,16.90
2014,08,25,01,19,16.90
2014,08,25,01,20,16.90
2014,08,25,01,21,16.90
2014,08,25,01,22,16.90
2014,08,25,01,23,16.90
2014,08,25,01,24,16.80
2014,08,25,01,25,16.80
2014,08,25,01,26,16.80
2014,08,25,01,27,16.80
2014,08,25,01,28,16.80
2014,08,25,01,29,16.80
2014,08,25,01,30,16.80
2014,08,25,01,31,16.80
2014,08,25,01,32,16.80
2014,08,25,01,33,16.80
2014,08,25,01,34,16.80
2014,08,25,01,35,16.80
2014,08,25,01,36,16.70
2014,08,25,01,37,16.70
2014,08,25,01,38,16.70
2014,08,25,01,39,16.70
2014,08,25,01,40,16.70
2014,08,25,01,41,16.70
2014,08,25,01,42,16.70
2014,08,25,01,43,16.70
2014,08,25,01,44,16.70
2014,08,25,01,45,16.60
2014,08,25,01,46,16.60
2014,08,25,01,47,16.60
2014,08,25,01,48,16.60
2014,08,25,01,49,16.60
2014,08,25,01,50,16.60
2014,08,25,01,51,16.50
2014,08,25,01,52,16.50
2014,08,25,01,53,16.50
2014,08,25,01,54,16.50
2014,08,25,01,55,16.50
2014,08,25,01,56,16.40
2014,08,25,01,57,16.40
2014,08,25,01,58,16.40
2014,08,25,01,59,16.40
2014,08,25,02,00,16.40
2014,08,25,02,01,16.40
2014,08,25,02,02,16.40
2014,08,25,02,03,16.40
2014,08,25,02,04,16.30
2014,08,25,02,05,16.30
2014,08,25,02,06,16.30
2014,08,25,02,07,16.30
2014,08,25,02,08,16.30
2014,08,25,02,09,16.30
2014,08,25,02,10,16.30
2014,08,25,02,11,16.30
2014,08,25,02,12,16.30
2014,08,25,02,13,16.20
2014,08,25,02,14,16.20
2014,08,25,02,15,16.20
2014,08,25,02,16,16.20
2014,08,25,02,17,16.20
2014,08,25,02,18,16.20
2014,08,25,02,19,16.20
2014,08,25,02,20,16.20
2014,08,25,02,21,16.20
2014,08,25,02,22,16.20
2014,08,25,02,23,16.20
2014,08,25,02,24,16.10
2014,08,25,02,25,16.10
2014,08,25,02,26,16.10
2014,08,25,02,27,16.10
2014,08,25,02,28,16.10
2014,08,25,02,29,16.10
2014,08,25,02,30,16.10
2014,08,25,02,31,16.10
2014,08,25,02,32,16.10
2014,08,25,02,33,16.10
2014,08,25,02,34,16.10
2014,08,25,02,35,16.10
2014,08,25,02,36,16.10
2014,08,25,02,37,16.10
2014,08,25,02,38,16.10
2014,08,25,02,39,16.10
2014,08,25,02,40,16.10
2014,08,25,02,41,16.10
2014,08,25,02,42,16.20
2014,08,25,02,43,16.20
2014,08,25,02,44,16.20
2014,08,25,02,45,16.20
2014,08,25,02,46,16.30
2014,08,25,02,47,16.30
2014,08,25,02,48,16.30
2014,08,25,02,49,16.40
2014,08,25,02,50,16.40
2014,08,25,02,51,16.50
2014,08,25,02,52,16.50
2014,08,25,02,53,16.60
2014,08,25,02,54,16.60
2014,08,25,02,55,16.60
2014,08,25,02,56,16.60
2014,08,25,02,57,16.70
2014,08,25,02,58,16.70
2014,08,25,02,59,16.80
2014,08,25,03,00,16.80
2014,08,25,03,01,16.80
2014,08,25,03,02,16.90
2014,08,25,03,03,16.90
2014,08,25,03,04,16.90
2014,08,25,03,05,16.90
2014,08,25,03,06,16.90
2014,08,25,03,07,16.90
2014,08,25,03,08,16.90
2014,08,25,03,09,16.90
2014,08,25,03,10,16.90
2014,08,25,03,11,16.90
2014,08,25,03,12,16.90
2014,08,25,03,13,16.90
2014,08,25,03,14,16.80
2014,08,25,03,15,16.80
2014,08,25,03,16,16.80
2014,08,25,03,17,16.80
2014,08,25,03,18,16.70
2014,08,25,03,19,16.70
2014,08,25,03,20,16.70
2014,08,25,03,21,16.60
2014,08,25,03,22,16.60
2014,08,25,03,23,16.60
2014,08,25,03,24,16.50
2014,08,25,03,25,16.50
2014,08,25,03,26,16.40
2014,08,25,03,27,16.40
2014,08,25,03,28,16.40
2014,08,25,03,29,16.30
2014,08,25,03,30,16.30
2014,08,25,03,31,16.30
2014,08,25,03,32,16.30
2014,08,25,03,33,16.20
2014,08,25,03,34,16.20
2014,08,25,03,35,16.20
2014,08,25,03,36,16.10
2014,08,25,03,37,16.10
2014,08,25,03,38,16.10
2014,08,25,03,39,16.10
2014,08,25,03,40,16.00
2014,08,25,03,41,16.00
2014,08,25,03,42,15.90
2014,08,25,03,43,15.90
2014,08,25,03,44,15.90
2014,08,25,03,45,15.90
2014,08,25,03,46,15.90
2014,08,25,03,47,15.90
2014,08,25,03,48,15.80
2014,08,25,03,49,15.80
2014,08,25,03,50,15.80
2014,08,25,03,51,15.80
2014,08,25,03,52,15.80
2014,08,25,03,53,15.80
2014,08,25,03,54,15.80
2014,08,25,03,55,15.80
2014,08,25,03,56,15.70
2014,08,25,03,57,15.70
2014,08,25,03,58,15.70
2014,08,25,03,59,15.70
2014,08,25,04,00,15.70
2014,08,25,04,01,15.70
2014,08,25,04,02,15.70
2014,08,25,04,03,15.70
2014,08,25,04,04,15.60
2014,08,25,04,05,15.60
2014,08,25,04,06,15.60
2014,08,25,04,07,15.60
2014,08,25,04,08,15.60
2014,08,25,04,09,15.60
2014,08,25,04,10,15.60
2014,08,25,04,11,15.60
2014,08,25,04,12,15.60
2014,08,25,04,13,15.60
2014,08,25,04,14,15.60
2014,08,25,04,15,15.60
2014,08,25,04,16,15.60
2014,08,25,04,17,15.60
2014,08,25,04,18,15.60
2014,08,25,04,19,15.60
2014,08,25,04,20,15.50
2014,08,25,04,21,15.50
2014,08,25,04,22,15.50
2014,08,25,04,23,15.50
2014,08,25,04,24,15.50
2014,08,25,04,25,15.50
2014,08,25,04,26,15.50
2014,08,25,04,27,15.50
2014,08,25,04,28,15.50
2014,08,25,04,29,15.50
2014,08,25,04,30,15.40
2014,08,25,04,31,15.40
2014,08,25,04,32,15.40
2014,08,25,04,33,15.40
2014,08,25,04,34,15.40
2014,08,25,04,35,15.40
2014,08,25,04,36,15.40
2014,08,25,04,37,15.40
2014,08,25,04,38,15.40
2014,08,25,04,39,15.40
2014,08,25,04,40,15.40
2014,08,25,04,41,15.40
2014,08,25,04,42,15.40
2014,08,25,04,43,15.40
2014,08,25,04,44,15.40
2014,08,25,04,45,15.40
2014,08,25,04,46,15.40
2014,08,25,04,47,15.30
2014,08,25,04,48,15.30
2014,08,25,04,49,15.30
2014,08,25,04,50,15.30
2014,08,25,04,51,15.30
2014,08,25,04,52,15.30
2014,08,25,04,53,15.20
2014,08,25,04,54,15.20
2014,08,25,04,55,15.20
2014,08,25,04,56,15.20
2014,08,25,04,57,15.20
2014,08,25,04,58,15.10
2014,08,25,04,59,15.10
2014,08,25,05,00,15.10
2014,08,25,05,01,15.10
2014,08,25,05,02,15.10
2014,08,25,05,03,15.00
2014,08,25,05,04,15.00
2014,08,25,05,05,15.00
2014,08,25,05,06,15.00
2014,08,25,05,07,15.00
2014,08,25,05,08,15.00
2014,08,25,05,09,15.00
2014,08,25,05,10,15.00
2014,08,25,05,11,15.00
2014,08,25,05,12,15.00
2014,08,25,05,13,15.00
2014,08,25,05,14,15.00
2014,08,25,05,15,15.00
2014,08,25,05,16,15.00
2014,08,25,05,17,15.00
2014,08,25,05,18,14.90
2014,08,25,05,19,14.90
2014,08,25,05,20,14.90
2014,08,25,05,21,14.90
2014,08,25,05,22,14.90
2014,08,25,05,23,14.80
2014,08,25,05,24,14.80
2014,08,25,05,25,14.80
2014,08,25,05,26,14.80
2014,08,25,05,27,14.80
2014,08,25,05,28,14.80
2014,08,25,05,29,14.70
2014,08,25,05,30,14.70
2014,08,25,05,31,14.70
2014,08,25,05,32,14.70
2014,08,25,05,33,14.70
2014,08,25,05,34,14.70
2014,08,25,05,35,14.70
2014,08,25,05,36,14.70
2014,08,25,05,37,14.70
2014,08,25,05,38,14.70
2014,08,25,05,39,14.60
2014,08,25,05,40,14.60
2014,08,25,05,41,14.60
2014,08,25,05,42,14.60
2014,08,25,05,43,14.60
2014,08,25,05,44,14.60
2014,08,25,05,45,14.60
2014,08,25,05,46,14.60
2014,08,25,05,47,14.60
2014,08,25,05,48,14.60
2014,08,25,05,49,14.60
2014,08,25,05,50,14.60
2014,08,25,05,51,14.60
2014,08,25,05,52,14.50
2014,08,25,05,53,14.50
2014,08,25,05,54,14.50
2014,08,25,05,55,14.50
2014,08,25,05,56,14.50
2014,08,25,05,57,14.40
2014,08,25,05,58,14.40
2014,08,25,05,59,14.40
2014,08,25,06,00,14.40
2014,08,25,06,01,14.40
2014,08,25,06,02,14.40
2014,08,25,06,03,14.40
2014,08,25,06,04,14.40
2014,08,25,06,05,14.40
2014,08,25,06,06,14.40
2014,08,25,06,07,14.40
2014,08,25,06,08,14.40
2014,08,25,06,09,14.40
2014,08,25,06,10,14.40
2014,08,25,06,11,14.40
2014,08,25,06,12,14.30
2014,08,25,06,13,14.30
2014,08,25,06,14,14.30
2014,08,25,06,15,14.30
2014,08,25,06,16,14.30
2014,08,25,06,17,14.30
2014,08,25,06,18,14.30
2014,08,25,06,19,14.30
2014,08,25,06,20,14.30
2014,08,25,06,21,14.30
2014,08,25,06,22,14.30
2014,08,25,06,23,14.30
2014,08,25,06,24,14.30
2014,08,25,06,25,14.30
2014,08,25,06,26,14.20
2014,08,25,06,27,14.20
2014,08,25,06,28,14.20
2014,08,25,06,29,14.20
2014,08,25,06,30,14.20
2014,08,25,06,31,14.20
2014,08,25,06,32,14.20
2014,08,25,06,33,14.20
2014,08,25,06,34,14.20
2014,08,25,06,35,14.20
2014,08,25,06,36,14.20
2014,08,25,06,37,14.20
2014,08,25,06,38,14.20
2014,08,25,06,39,14.20
2014,08,25,06,40,14.20
2014,08,25,06,41,14.20
2014,08,25,06,42,14.20
2014,08,25,06,43,14.20
2014,08,25,06,44,14.20
2014,08,25,06,45,14.20
2014,08,25,06,46,14.20
2014,08,25,06,47,14.20
2014,08,25,06,48,14.20
2014,08,25,06,49,14.20
2014,08,25,06,50,14.30
2014,08,25,06,51,14.30
2014,08,25,06,52,14.30
2014,08,25,06,53,14.30
2014,08,25,06,54,14.30
2014,08,25,06,55,14.30
2014,08,25,06,56,14.30
2014,08,25,06,57,14.30
2014,08,25,06,58,14.30
2014,08,25,06,59,14.30
2014,08,25,07,00,14.30
2014,08,25,07,01,14.40
2014,08,25,07,02,14.40
2014,08,25,07,03,14.40
2014,08,25,07,04,14.40
2014,08,25,07,05,14.40
2014,08,25,07,06,14.40
2014,08,25,07,07,14.40
2014,08,25,07,08,14.40
2014,08,25,07,09,14.40
2014,08,25,07,10,14.40
2014,08,25,07,11,14.50
2014,08,25,07,12,14.50
2014,08,25,07,13,14.50
2014,08,25,07,14,14.50
2014,08,25,07,15,14.50
2014,08,25,07,16,14.50
2014,08,25,07,17,14.60
2014,08,25,07,18,14.60
2014,08,25,07,19,14.60
2014,08,25,07,20,14.60
2014,08,25,07,21,14.60
2014,08,25,07,22,14.60
2014,08,25,07,23,14.70
2014,08,25,07,24,14.70
2014,08,25,07,25,14.70
2014,08,25,07,26,14.70
2014,08,25,07,27,14.70
2014,08,25,07,28,14.70
2014,08,25,07,29,14.80
2014,08,25,07,30,14.80
2014,08,25,07,31,14.80
2014,08,25,07,32,14.90
2014,08,25,07,33,14.90
2014,08,25,07,34,15.00
2014,08,25,07,35,15.00
2014,08,25,07,36,15.00
2014,08,25,07,37,15.00
2014,08,25,07,38,15.00
2014,08,25,07,39,15.00
2014,08,25,07,40,15.00
2014,08,25,07,41,15.10
2014,08,25,07,42,15.10
2014,08,25,07,43,15.20
2014,08,25,07,44,15.20
2014,08,25,07,45,15.20
2014,08,25,07,46,15.30
2014,08,25,07,47,15.30
2014,08,25,07,48,15.30
2014,08,25,07,49,15.40
2014,08,25,07,50,15.40
2014,08,25,07,51,15.50
2014,08,25,07,52,15.50
2014,08,25,07,53,15.60
2014,08,25,07,54,15.70
2014,08,25,07,55,15.70
2014,08,25,07,56,15.80
2014,08,25,07,57,15.90
2014,08,25,07,58,15.90
2014,08,25,07,59,16.00
2014,08,25,08,00,16.10
2014,08,25,08,01,16.10
2014,08,25,08,02,16.10
2014,08,25,08,03,16.10
2014,08,25,08,04,16.20
2014,08,25,08,05,16.20
2014,08,25,08,06,16.20
2014,08,25,08,07,16.20
2014,08,25,08,08,16.20
2014,08,25,08,09,16.20
2014,08,25,08,10,16.20
2014,08,25,08,11,16.20
2014,08,25,08,12,16.20
2014,08,25,08,13,16.20
2014,08,25,08,14,16.20
2014,08,25,08,15,16.20
2014,08,25,08,16,16.20
2014,08,25,08,17,16.30
2014,08,25,08,18,16.30
2014,08,25,08,19,16.30
2014,08,25,08,20,16.30
2014,08,25,08,21,16.30
2014,08,25,08,22,16.40
2014,08,25,08,23,16.40
2014,08,25,08,24,16.40
2014,08,25,08,25,16.40
2014,08,25,08,26,16.40
2014,08,25,08,27,16.50
2014,08,25,08,28,16.50
2014,08,25,08,29,16.60
2014,08,25,08,30,16.60
2014,08,25,08,31,16.60
2014,08,25,08,32,16.70
2014,08,25,08,33,16.70
2014,08,25,08,34,16.80
2014,08,25,08,35,16.80
2014,08,25,08,36,16.90
2014,08,25,08,37,17.00
2014,08,25,08,38,17.10
2014,08,25,08,39,17.10
2014,08,25,08,40,17.20
2014,08,25,08,41,17.30
2014,08,25,08,42,17.30
2014,08,25,08,43,17.40
2014,08,25,08,44,17.50
2014,08,25,08,45,17.60
2014,08,25,08,46,17.70
2014,08,25,08,47,17.70
2014,08,25,08,48,17.80
2014,08,25,08,49,17.90
2014,08,25,08,50,18.00
2014,08,25,08,51,18.10
2014,08,25,08,52,18.10
2014,08,25,08,53,18.20
2014,08,25,08,54,18.20
2014,08,25,08,55,18.30
2014,08,25,08,56,18.30
2014,08,25,08,57,18.40
2014,08,25,08,58,18.40
2014,08,25,08,59,18.50
2014,08,25,09,00,18.50
2014,08,25,09,01,18.60
2014,08,25,09,02,18.60
2014,08,25,09,03,18.60
2014,08,25,09,04,18.70
2014,08,25,09,05,18.80
2014,08,25,09,06,18.80
2014,08,25,09,07,18.90
2014,08,25,09,08,19.00
2014,08,25,09,09,19.10
2014,08,25,09,10,19.20
2014,08,25,09,11,19.30
2014,08,25,09,12,19.50
2014,08,25,09,13,19.60
2014,08,25,09,14,19.60
2014,08,25,09,15,19.70
2014,08,25,09,16,19.80
2014,08,25,09,17,19.90
2014,08,25,09,18,20.00
2014,08,25,09,19,20.10
2014,08,25,09,20,20.20
2014,08,25,09,21,20.30
2014,08,25,09,22,20.40
2014,08,25,09,23,20.50
2014,08,25,09,24,20.60
2014,08,25,09,25,20.70
2014,08,25,09,26,20.70
2014,08,25,09,27,20.80
2014,08,25,09,28,20.80
2014,08,25,09,29,20.80
2014,08,25,09,30,20.90
2014,08,25,09,31,20.90
2014,08,25,09,32,20.90
2014,08,25,09,33,21.00
2014,08,25,09,34,21.10
2014,08,25,09,35,21.10
2014,08,25,09,36,21.10
2014,08,25,09,37,21.20
2014,08,25,09,38,21.20
2014,08,25,09,39,21.20
2014,08,25,09,40,21.20
2014,08,25,09,41,21.20
2014,08,25,09,42,21.20
2014,08,25,09,43,21.20
2014,08,25,09,44,21.20
2014,08,25,09,45,21.20
2014,08,25,09,46,21.20
2014,08,25,09,47,21.20
2014,08,25,09,48,21.20
2014,08,25,09,49,21.20
2014,08,25,09,50,21.20
2014,08,25,09,51,21.20
2014,08,25,09,52,21.10
2014,08,25,09,53,21.10
2014,08,25,09,54,21.10
2014,08,25,09,55,21.20
2014,08,25,09,56,21.20
2014,08,25,09,57,21.30
2014,08,25,09,58,21.30
2014,08,25,09,59,21.40
2014,08,25,10,00,21.50
2014,08,25,10,01,21.50
2014,08,25,10,02,21.60
2014,08,25,10,03,21.60
2014,08,25,10,04,21.60
2014,08,25,10,05,21.60
2014,08,25,10,06,21.50
2014,08,25,10,07,21.40
2014,08,25,10,08,21.30
2014,08,25,10,09,21.30
2014,08,25,10,10,21.20
2014,08,25,10,11,21.20
2014,08,25,10,12,21.10
2014,08,25,10,13,21.10
2014,08,25,10,14,21.20
2014,08,25,10,15,21.20
2014,08,25,10,16,21.20
2014,08,25,10,17,21.20
2014,08,25,10,18,21.30
2014,08,25,10,19,21.40
2014,08,25,10,20,21.50
2014,08,25,10,21,21.60
2014,08,25,10,22,21.70
2014,08,25,10,23,21.80
2014,08,25,10,24,21.80
2014,08,25,10,25,21.80
2014,08,25,10,26,21.90
2014,08,25,10,27,21.90
2014,08,25,10,28,22.00
2014,08,25,10,29,22.00
2014,08,25,10,30,22.00
2014,08,25,10,31,22.00
2014,08,25,10,32,22.00
2014,08,25,10,33,21.90
2014,08,25,10,34,21.90
2014,08,25,10,35,21.90
2014,08,25,10,36,21.90
2014,08,25,10,37,21.90
2014,08,25,10,38,22.00
2014,08,25,10,39,22.00
2014,08,25,10,40,22.10
2014,08,25,10,41,22.20
2014,08,25,10,42,22.30
2014,08,25,10,43,22.40
2014,08,25,10,44,22.50
2014,08,25,10,45,22.60
2014,08,25,10,46,22.70
2014,08,25,10,47,22.80
2014,08,25,10,48,22.70
2014,08,25,10,49,22.60
2014,08,25,10,50,22.60
2014,08,25,10,51,22.40
2014,08,25,10,52,22.40
2014,08,25,10,53,22.30
2014,08,25,10,54,22.30
2014,08,25,10,55,22.30
2014,08,25,10,56,22.30
2014,08,25,10,57,22.20
2014,08,25,10,58,22.20
2014,08,25,10,59,22.20
2014,08,25,11,00,22.20
2014,08,25,11,01,22.10
2014,08,25,11,02,22.10
2014,08,25,11,03,22.10
2014,08,25,11,04,22.20
2014,08,25,11,05,22.20
2014,08,25,11,06,22.20
2014,08,25,11,07,22.20
2014,08,25,11,08,22.30
2014,08,25,11,09,22.30
2014,08,25,11,10,22.30
2014,08,25,11,11,22.40
2014,08,25,11,12,22.40
2014,08,25,11,13,22.40
2014,08,25,11,14,22.30
2014,08,25,11,15,22.20
2014,08,25,11,16,22.10
2014,08,25,11,17,22.00
2014,08,25,11,18,21.90
2014,08,25,11,19,21.90
2014,08,25,11,20,21.80
2014,08,25,11,21,21.80
2014,08,25,11,22,21.80
2014,08,25,11,23,21.80
2014,08,25,11,24,21.80
2014,08,25,11,25,21.80
2014,08,25,11,26,21.80
2014,08,25,11,27,21.80
2014,08,25,11,28,21.80
2014,08,25,11,29,21.80
2014,08,25,11,30,21.80
2014,08,25,11,31,21.90
2014,08,25,11,32,21.90
2014,08,25,11,33,21.90
2014,08,25,11,34,21.90
2014,08,25,11,35,22.00
2014,08,25,11,36,22.00
2014,08,25,11,37,22.00
2014,08,25,11,38,22.00
2014,08,25,11,39,21.90
2014,08,25,11,40,21.80
2014,08,25,11,41,21.80
2014,08,25,11,42,21.80
2014,08,25,11,43,21.70
2014,08,25,11,44,21.70
2014,08,25,11,45,21.70
2014,08,25,11,46,21.60
2014,08,25,11,47,21.60
2014,08,25,11,48,21.70
2014,08,25,11,49,21.70
2014,08,25,11,50,21.80
2014,08,25,11,51,21.90
2014,08,25,11,52,22.00
2014,08,25,11,53,22.10
2014,08,25,11,54,22.20
2014,08,25,11,55,22.30
2014,08,25,11,56,22.30
2014,08,25,11,57,22.30
2014,08,25,11,58,22.20
2014,08,25,11,59,22.20
2014,08,25,12,00,22.10
2014,08,25,12,01,22.10
2014,08,25,12,02,22.10
2014,08,25,12,03,22.10
2014,08,25,12,04,22.00
2014,08,25,12,05,21.90
2014,08,25,12,06,21.90
2014,08,25,12,07,21.80
2014,08,25,12,08,21.80
2014,08,25,12,09,21.80
2014,08,25,12,10,21.80
2014,08,25,12,11,21.90
2014,08,25,12,12,21.90
2014,08,25,12,13,22.00
2014,08,25,12,14,22.10
2014,08,25,12,15,22.10
2014,08,25,12,16,22.20
2014,08,25,12,17,22.20
2014,08,25,12,18,22.30
2014,08,25,12,19,22.40
2014,08,25,12,20,22.50
2014,08,25,12,21,22.60
2014,08,25,12,22,22.60
2014,08,25,12,23,22.70
2014,08,25,12,24,22.70
2014,08,25,12,25,22.70
2014,08,25,12,26,22.70
2014,08,25,12,27,22.60
2014,08,25,12,28,22.60
2014,08,25,12,29,22.70
2014,08,25,12,30,22.70
2014,08,25,12,31,22.70
2014,08,25,12,32,22.70
2014,08,25,12,33,22.60
2014,08,25,12,34,22.60
2014,08,25,12,35,22.50
2014,08,25,12,36,22.40
2014,08,25,12,37,22.40
2014,08,25,12,38,22.40
2014,08,25,12,39,22.40
2014,08,25,12,40,22.40
2014,08,25,12,41,22.40
2014,08,25,12,42,22.40
2014,08,25,12,43,22.40
2014,08,25,12,44,22.50
2014,08,25,12,45,22.60
2014,08,25,12,46,22.60
2014,08,25,12,47,22.60
2014,08,25,12,48,22.50
2014,08,25,12,49,22.30
2014,08,25,12,50,22.30
2014,08,25,12,51,22.30
2014,08,25,12,52,22.30
2014,08,25,12,53,22.30
2014,08,25,12,54,22.30
2014,08,25,12,55,22.40
2014,08,25,12,56,22.30
2014,08,25,12,57,22.30
2014,08,25,12,58,22.20
2014,08,25,12,59,22.10
2014,08,25,13,00,22.10
2014,08,25,13,01,22.10
2014,08,25,13,02,22.10
2014,08,25,13,03,22.10
2014,08,25,13,04,22.10
2014,08,25,13,05,22.10
2014,08,25,13,06,22.10
2014,08,25,13,07,22.10
2014,08,25,13,08,22.10
2014,08,25,13,09,22.00
2014,08,25,13,10,22.00
2014,08,25,13,11,21.90
2014,08,25,13,12,21.80
2014,08,25,13,13,21.90
2014,08,25,13,14,21.90
2014,08,25,13,15,21.90
2014,08,25,13,16,21.90
2014,08,25,13,17,21.80
2014,08,25,13,18,21.90
2014,08,25,13,19,21.80
2014,08,25,13,20,21.80
2014,08,25,13,21,21.70
2014,08,25,13,22,21.70
2014,08,25,13,23,21.60
2014,08,25,13,24,21.60
2014,08,25,13,25,21.50
2014,08,25,13,26,21.50
2014,08,25,13,27,21.60
2014,08,25,13,28,21.70
2014,08,25,13,29,21.80
2014,08,25,13,30,21.80
2014,08,25,13,31,21.90
2014,08,25,13,32,22.00
2014,08,25,13,33,22.10
2014,08,25,13,34,22.10
2014,08,25,13,35,22.20
2014,08,25,13,36,22.30
2014,08,25,13,37,22.30
2014,08,25,13,38,22.30
2014,08,25,13,39,22.30
2014,08,25,13,40,22.40
2014,08,25,13,41,22.40
2014,08,25,13,42,22.30
2014,08,25,13,43,22.30
2014,08,25,13,44,22.30
2014,08,25,13,45,22.30
2014,08,25,13,46,22.30
2014,08,25,13,47,22.30
2014,08,25,13,48,22.30
2014,08,25,13,49,22.30
2014,08,25,13,50,22.30
2014,08,25,13,51,22.30
2014,08,25,13,52,22.30
2014,08,25,13,53,22.30
2014,08,25,13,54,22.30
2014,08,25,13,55,22.30
2014,08,25,13,56,22.30
2014,08,25,13,57,22.30
2014,08,25,13,58,22.30
2014,08,25,13,59,22.30
2014,08,25,14,00,22.30
2014,08,25,14,01,22.30
2014,08,25,14,02,22.30
2014,08,25,14,03,22.30
2014,08,25,14,04,22.30
2014,08,25,14,05,22.30
2014,08,25,14,06,22.30
2014,08,25,14,07,22.20
2014,08,25,14,08,22.20
2014,08,25,14,09,22.20
2014,08,25,14,10,22.20
2014,08,25,14,11,22.20
2014,08,25,14,12,22.20
2014,08,25,14,13,22.20
2014,08,25,14,14,22.20
2014,08,25,14,15,22.20
2014,08,25,14,16,22.30
2014,08,25,14,17,22.30
2014,08,25,14,18,22.30
2014,08,25,14,19,22.30
2014,08,25,14,20,22.30
2014,08,25,14,21,22.30
2014,08,25,14,22,22.30
2014,08,25,14,23,22.30
2014,08,25,14,24,22.30
2014,08,25,14,25,22.30
2014,08,25,14,26,22.20
2014,08,25,14,27,22.20
2014,08,25,14,28,22.20
2014,08,25,14,29,22.30
2014,08,25,14,30,22.20
2014,08,25,14,31,22.20
2014,08,25,14,32,22.20
2014,08,25,14,33,22.30
2014,08,25,14,34,22.20
2014,08,25,14,35,22.20
2014,08,25,14,36,22.30
2014,08,25,14,37,22.30
2014,08,25,14,38,22.40
2014,08,25,14,39,22.40
2014,08,25,14,40,22.50
2014,08,25,14,41,22.60
2014,08,25,14,42,22.60
2014,08,25,14,43,22.70
2014,08,25,14,44,22.70
2014,08,25,14,45,22.80
2014,08,25,14,46,22.90
2014,08,25,14,47,23.00
2014,08,25,14,48,23.20
2014,08,25,14,49,23.30
2014,08,25,14,50,23.30
2014,08,25,14,51,23.30
2014,08,25,14,52,23.30
2014,08,25,14,53,23.30
2014,08,25,14,54,23.30
2014,08,25,14,55,23.40
2014,08,25,14,56,23.40
2014,08,25,14,57,23.40
2014,08,25,14,58,23.50
2014,08,25,14,59,23.60
2014,08,25,15,00,23.70
2014,08,25,15,01,23.80
2014,08,25,15,02,23.80
2014,08,25,15,03,23.90
2014,08,25,15,04,23.90
2014,08,25,15,05,23.90
2014,08,25,15,06,24.00
2014,08,25,15,07,24.00
2014,08,25,15,08,24.10
2014,08,25,15,09,24.00
2014,08,25,15,10,23.90
2014,08,25,15,11,23.90
2014,08,25,15,12,23.80
2014,08,25,15,13,23.80
2014,08,25,15,14,23.90
2014,08,25,15,15,23.90
2014,08,25,15,16,23.90
2014,08,25,15,17,24.00
2014,08,25,15,18,24.10
2014,08,25,15,19,24.10
2014,08,25,15,20,24.10
2014,08,25,15,21,24.10
2014,08,25,15,22,24.10
2014,08,25,15,23,24.00
2014,08,25,15,24,24.00
2014,08,25,15,25,23.90
2014,08,25,15,26,23.90
2014,08,25,15,27,23.90
2014,08,25,15,28,23.90
2014,08,25,15,29,23.80
2014,08,25,15,30,23.80
2014,08,25,15,31,23.70
2014,08,25,15,32,23.70
2014,08,25,15,33,23.60
2014,08,25,15,34,23.60
2014,08,25,15,35,23.50
2014,08,25,15,36,23.50
2014,08,25,15,37,23.50
2014,08,25,15,38,23.60
2014,08,25,15,39,23.50
2014,08,25,15,40,23.30
2014,08,25,15,41,23.20
2014,08,25,15,42,23.10
2014,08,25,15,43,23.10
2014,08,25,15,44,23.00
2014,08,25,15,45,23.00
2014,08,25,15,46,23.00
2014,08,25,15,47,22.90
2014,08,25,15,48,22.90
2014,08,25,15,49,23.00
2014,08,25,15,50,23.00
2014,08,25,15,51,23.00
2014,08,25,15,52,23.10
2014,08,25,15,53,23.10
2014,08,25,15,54,23.20
2014,08,25,15,55,23.30
2014,08,25,15,56,23.30
2014,08,25,15,57,23.20
2014,08,25,15,58,23.20
2014,08,25,15,59,23.10
2014,08,25,16,00,23.10
2014,08,25,16,01,23.00
2014,08,25,16,02,22.90
2014,08,25,16,03,22.90
2014,08,25,16,04,22.80
2014,08,25,16,05,22.80
2014,08,25,16,06,22.90
2014,08,25,16,07,23.00
2014,08,25,16,08,23.00
2014,08,25,16,09,23.00
2014,08,25,16,10,23.00
2014,08,25,16,11,22.90
2014,08,25,16,12,22.90
2014,08,25,16,13,22.90
2014,08,25,16,14,22.90
2014,08,25,16,15,22.90
2014,08,25,16,16,23.00
2014,08,25,16,17,23.00
2014,08,25,16,18,23.10
2014,08,25,16,19,23.10
2014,08,25,16,20,23.20
2014,08,25,16,21,23.30
2014,08,25,16,22,23.30
2014,08,25,16,23,23.30
2014,08,25,16,24,23.30
2014,08,25,16,25,23.40
2014,08,25,16,26,23.40
2014,08,25,16,27,23.50
2014,08,25,16,28,23.50
2014,08,25,16,29,23.50
2014,08,25,16,30,23.50
2014,08,25,16,31,23.60
2014,08,25,16,32,23.60
2014,08,25,16,33,23.70
2014,08,25,16,34,23.70
2014,08,25,16,35,23.80
2014,08,25,16,36,23.80
2014,08,25,16,37,23.90
2014,08,25,16,38,23.90
2014,08,25,16,39,24.00
2014,08,25,16,40,24.10
2014,08,25,16,41,24.20
2014,08,25,16,42,24.20
2014,08,25,16,43,24.20
2014,08,25,16,44,24.20
2014,08,25,16,45,24.30
2014,08,25,16,46,24.30
2014,08,25,16,47,24.40
2014,08,25,16,48,24.40
2014,08,25,16,49,24.50
2014,08,25,16,50,24.60
2014,08,25,16,51,24.60
2014,08,25,16,52,24.60
2014,08,25,16,53,24.60
2014,08,25,16,54,24.60
2014,08,25,16,55,24.70
2014,08,25,16,56,24.60
2014,08,25,16,57,24.60
2014,08,25,16,58,24.60
2014,08,25,16,59,24.50
2014,08,25,17,00,24.50
2014,08,25,17,01,24.50
2014,08,25,17,02,24.50
2014,08,25,17,03,24.50
2014,08,25,17,04,24.60
2014,08,25,17,05,24.60
2014,08,25,17,06,24.60
2014,08,25,17,07,24.50
2014,08,25,17,08,24.40
2014,08,25,17,09,24.40
2014,08,25,17,10,24.30
2014,08,25,17,11,24.30
2014,08,25,17,12,24.30
2014,08,25,17,13,24.20
2014,08,25,17,14,24.20
2014,08,25,17,15,24.20
2014,08,25,17,16,24.20
2014,08,25,17,17,24.20
2014,08,25,17,18,24.20
2014,08,25,17,19,24.10